Weather History for Rensselaer, IN

Change the Weather History Date:

Saturday, October 6, 2012

  Actual Average (KVPZ) Record (KVPZ)
Temperature  
Mean Temperature 41 °F 56 °F  
Max Temperature 50 °F 67 °F 88 °F (2007)
Min Temperature 32 °F 45 °F 32 °F (2003)
Degree Days  
Heating Degree Days 24 10  
Month to date heating degree days 57  
Since 1 July heating degree days 187  
Cooling Degree Days 0 1  
Month to date cooling degree days 6  
Year to date cooling degree days 708  
Moisture  
Dew Point 31 °F    
Average Humidity 69    
Maximum Humidity 100    
Minimum Humidity 43    
Precipitation  
Precipitation 0.01 in 0.10 in 0.25 in (2013)
Month to date precipitation 0.59  
Year to date precipitation 29.34  
Sea Level Pressure  
Sea Level Pressure 30.14 in    
Wind  
Wind Speed 6 mph (West)    
Max Wind Speed 12 mph    
Max Gust Speed 17 mph    
Visibility 10 miles    
Events      
T = Trace of Precipitation, MM = Missing Value Source: NWS Daily Summary

Daily Weather History Graph

Daily Weather History Graph

Search for Another Location

Airport:

Trip Planner

Search our weather history database for the weather conditions in past years. The results will help you decide how hot, cold, wet, or windy it might be!

Date:

Astronomy

Oct. 06, 2012 Rise Set
Actual Time 6:51 AM CDT 6:21 PM CDT
Civil Twilight 6:23 AM CDT 6:49 PM CDT
Nautical Twilight 5:51 AM CDT 7:20 PM CDT
Astronomical Twilight 5:19 AM CDT 7:52 PM CDT
Moon 10:34 PM CDT (10/6) 12:47 PM CDT (10/6)
Length of Visible Light 12h 25m
Length of Day
11h 30m
Waning Gibbous, 65% of the Moon is Illuminated
Oct 6
Waning Gibbous
Oct 8
Last Quarter
Oct 15
New
Oct 21
First Quarter
Oct 29
Full

Hourly Weather History & Observations

Time (CDT) Temp. Windchill Dew Point Humidity Pressure Visibility Wind Dir Wind Speed Gust Speed Precip Events Conditions
12:15 AM 37.4 °F 33.8 °F 35.6 °F 93% 30.09 in 10.0 mi West 4.6 mph - N/A   Clear
12:35 AM 35.6 °F 30.7 °F 33.8 °F 93% 30.09 in 10.0 mi West 5.8 mph - N/A   Clear
12:55 AM 35.6 °F 30.7 °F 33.8 °F 93% 30.09 in 10.0 mi WSW 5.8 mph - 0.01 in   Clear
1:15 AM 35.6 °F 29.9 °F 33.8 °F 93% 30.09 in 10.0 mi West 6.9 mph - N/A   Clear
1:55 AM 35.6 °F 29.2 °F 33.8 °F 93% 30.09 in 10.0 mi WSW 8.1 mph - N/A   Clear
2:15 AM 35.6 °F 29.9 °F 33.8 °F 93% 30.09 in 10.0 mi WSW 6.9 mph - N/A   Clear
2:35 AM 35.6 °F 29.9 °F 33.8 °F 93% 30.09 in 10.0 mi WSW 6.9 mph - N/A   Clear
2:55 AM 33.8 °F 28.6 °F 32.0 °F 93% 30.09 in 10.0 mi West 5.8 mph - N/A   Clear
3:15 AM 33.8 °F 28.6 °F 32.0 °F 93% 30.08 in 10.0 mi WSW 5.8 mph - N/A   Clear
3:35 AM 33.8 °F 28.6 °F 32.0 °F 93% 30.08 in 10.0 mi West 5.8 mph - N/A   Clear
3:55 AM 33.8 °F 28.6 °F 32.0 °F 93% 30.09 in 10.0 mi WSW 5.8 mph - N/A   Clear
4:15 AM 33.8 °F 28.6 °F 32.0 °F 93% 30.09 in 10.0 mi WSW 5.8 mph - N/A   Clear
4:35 AM 33.8 °F 28.6 °F 32.0 °F 93% 30.09 in 10.0 mi WSW 5.8 mph - N/A   Clear
4:55 AM 32.0 °F 26.4 °F 32.0 °F 100% 30.10 in 10.0 mi WSW 5.8 mph - N/A   Clear
5:15 AM 32.0 °F 27.5 °F 32.0 °F 100% 30.10 in 10.0 mi WSW 4.6 mph - N/A   Clear
5:35 AM 32.0 °F 26.4 °F 32.0 °F 100% 30.11 in 10.0 mi SW 5.8 mph - N/A   Clear
5:55 AM 32.0 °F 27.5 °F 32.0 °F 100% 30.12 in 10.0 mi SW 4.6 mph - N/A   Clear
6:15 AM 32.0 °F 25.6 °F 32.0 °F 100% 30.12 in 10.0 mi WSW 6.9 mph - N/A   Clear
6:55 AM 32.0 °F 26.4 °F 32.0 °F 100% 30.13 in 10.0 mi WSW 5.8 mph - N/A   Clear
7:15 AM 32.0 °F 27.5 °F 32.0 °F 100% 30.14 in 10.0 mi SW 4.6 mph - N/A   Clear
7:35 AM 32.0 °F 28.7 °F 32.0 °F 100% 30.14 in 10.0 mi WSW 3.5 mph - N/A   Clear
7:55 AM 33.8 °F 28.6 °F 32.0 °F 93% 30.14 in 10.0 mi West 5.8 mph - N/A   Clear
8:15 AM 33.8 °F 28.6 °F 32.0 °F 93% 30.15 in 10.0 mi West 5.8 mph - N/A   Clear
8:35 AM 35.6 °F 29.9 °F 32.0 °F 87% 30.16 in 10.0 mi West 6.9 mph - N/A   Clear
8:55 AM 35.6 °F 29.2 °F 32.0 °F 87% 30.15 in 10.0 mi West 8.1 mph - N/A   Clear
9:15 AM 37.4 °F 32.1 °F 32.0 °F 81% 30.15 in 10.0 mi West 6.9 mph - N/A   Clear
9:35 AM 41.0 °F 35.2 °F 32.0 °F 70% 30.15 in 10.0 mi West 9.2 mph - N/A   Clear
9:55 AM 41.0 °F 34.7 °F 32.0 °F 70% 30.16 in 10.0 mi West 10.4 mph - N/A   Clear
10:15 AM 42.8 °F 37.0 °F 32.0 °F 66% 30.16 in 10.0 mi West 10.4 mph - N/A   Clear
10:35 AM 44.6 °F 39.7 °F 32.0 °F 61% 30.16 in 10.0 mi West 9.2 mph - N/A   Clear
10:55 AM 44.6 °F 40.2 °F 32.0 °F 61% 30.16 in 10.0 mi NW 8.1 mph - N/A   Clear
11:15 AM 44.6 °F 39.7 °F 30.2 °F 57% 30.16 in 10.0 mi West 9.2 mph 16.1 mph N/A   Clear
11:35 AM 44.6 °F 39.2 °F 28.4 °F 53% 30.16 in 10.0 mi WNW 10.4 mph - N/A   Scattered Clouds
11:55 AM 46.4 °F 42.9 °F 30.2 °F 53% 30.16 in 10.0 mi WNW 6.9 mph - N/A   Scattered Clouds
12:15 PM 48.2 °F - 30.2 °F 50% 30.16 in 10.0 mi West 9.2 mph 16.1 mph N/A   Scattered Clouds
12:35 PM 48.2 °F - 30.2 °F 50% 30.16 in 10.0 mi WNW 10.4 mph 17.3 mph N/A   Mostly Cloudy
12:55 PM 48.2 °F - 28.4 °F 46% 30.15 in 10.0 mi WNW 11.5 mph 16.1 mph N/A   Mostly Cloudy
1:15 PM 50.0 °F - 30.2 °F 47% 30.15 in 10.0 mi WNW 10.4 mph 16.1 mph N/A   Mostly Cloudy
1:35 PM 50.0 °F - 30.2 °F 47% 30.14 in 10.0 mi WNW 10.4 mph 16.1 mph N/A   Mostly Cloudy
1:55 PM 48.2 °F - 28.4 °F 46% 30.14 in 10.0 mi West 11.5 mph - N/A   Mostly Cloudy
2:15 PM 50.0 °F - 28.4 °F 43% 30.14 in 10.0 mi WNW 9.2 mph - N/A   Mostly Cloudy
2:35 PM 48.2 °F - 28.4 °F 46% 30.14 in 10.0 mi West 10.4 mph - N/A   Overcast
2:55 PM 50.0 °F - 28.4 °F 43% 30.14 in 10.0 mi West 9.2 mph 16.1 mph N/A   Overcast
3:15 PM 50.0 °F - 28.4 °F 43% 30.14 in 10.0 mi West 6.9 mph - N/A   Overcast
3:35 PM 50.0 °F - 28.4 °F 43% 30.13 in 10.0 mi West 9.2 mph 17.3 mph N/A   Overcast
3:55 PM 48.2 °F - 28.4 °F 46% 30.14 in 10.0 mi West 6.9 mph - N/A   Overcast
4:15 PM 48.2 °F - 28.4 °F 46% 30.13 in 10.0 mi WNW 6.9 mph - N/A   Overcast
4:35 PM 48.2 °F - 28.4 °F 46% 30.14 in 10.0 mi West 6.9 mph - N/A   Overcast
4:55 PM 48.2 °F - 28.4 °F 46% 30.13 in 10.0 mi West 6.9 mph - N/A   Overcast
5:15 PM 46.4 °F 42.4 °F 28.4 °F 50% 30.14 in 10.0 mi West 8.1 mph - N/A   Overcast
5:35 PM 46.4 °F 42.9 °F 28.4 °F 50% 30.14 in 10.0 mi WNW 6.9 mph - N/A   Overcast
5:55 PM 46.4 °F 42.9 °F 28.4 °F 50% 30.15 in 10.0 mi WNW 6.9 mph - N/A   Overcast
6:15 PM 46.4 °F 42.9 °F 28.4 °F 50% 30.16 in 10.0 mi WNW 6.9 mph - N/A   Overcast
6:35 PM 46.4 °F 43.5 °F 28.4 °F 50% 30.16 in 10.0 mi WNW 5.8 mph - N/A   Overcast
6:55 PM 44.6 °F 43.1 °F 30.2 °F 57% 30.16 in 10.0 mi WNW 3.5 mph - N/A   Overcast
7:15 PM 44.6 °F 43.1 °F 30.2 °F 57% 30.16 in 10.0 mi WNW 3.5 mph - N/A   Overcast
7:35 PM 44.6 °F - 30.2 °F 57% 30.16 in 10.0 mi Calm Calm - N/A   Overcast
7:55 PM 44.6 °F - 32.0 °F 61% 30.16 in 10.0 mi Calm Calm - N/A   Overcast
8:15 PM 44.6 °F - 32.0 °F 61% 30.16 in 10.0 mi Calm Calm - N/A   Overcast
8:35 PM 44.6 °F 43.1 °F 32.0 °F 61% 30.16 in 10.0 mi WNW 3.5 mph - N/A   Overcast
8:55 PM 44.6 °F 42.2 °F 30.2 °F 57% 30.17 in 10.0 mi WNW 4.6 mph - N/A   Overcast
9:15 PM 44.6 °F 43.1 °F 30.2 °F 57% 30.17 in 10.0 mi WNW 3.5 mph - N/A   Overcast
9:35 PM 42.8 °F 39.3 °F 30.2 °F 61% 30.18 in 10.0 mi WNW 5.8 mph - N/A   Overcast
9:55 PM 42.8 °F 39.3 °F 30.2 °F 61% 30.18 in 10.0 mi WNW 5.8 mph - N/A   Overcast
10:15 PM 42.8 °F 40.1 °F 30.2 °F 61% 30.18 in 10.0 mi WNW 4.6 mph - N/A   Overcast
10:35 PM 42.8 °F 41.1 °F 30.2 °F 61% 30.18 in 10.0 mi WNW 3.5 mph - N/A   Overcast
10:55 PM 42.8 °F 41.1 °F 32.0 °F 66% 30.17 in 10.0 mi West 3.5 mph - N/A   Overcast
11:15 PM 42.8 °F 40.1 °F 32.0 °F 66% 30.18 in 10.0 mi West 4.6 mph - N/A   Overcast
11:35 PM 42.8 °F 40.1 °F 32.0 °F 66% 30.17 in 10.0 mi West 4.6 mph - N/A   Overcast
11:55 PM 42.8 °F 39.3 °F 32.0 °F 66% 30.17 in 10.0 mi West 5.8 mph - N/A   Overcast